Location: Columbia, SC
(34.0000°N, 81.0300°W)
Time: 05:42:41
(UTC-05:00)

Tiangong 1 - Visible Passes

Search period start: 28 November 2014 00:00
Search period end: 08 December 2014 00:00
Orbit: 368 x 391 km, 42.8° (Epoch: 27 November)

Date Brightness Start Highest point End Pass type
(mag) Time Alt. Az. Time Alt. Az. Time Alt. Az.
28 Nov 2.8 06:02:23 17° NNW 06:03:51 23° NNE 06:06:26 10° ENE visible
29 Nov 4.0 05:04:07 13° NE 05:04:07 13° NE 05:04:46 10° ENE visible
29 Nov 1.4 06:36:26 10° NW 06:39:31 56° NNE 06:42:35 10° ESE visible
30 Nov 2.2 05:37:55 32° N 05:38:11 32° NNE 05:41:03 10° E visible
01 Dec 1.0 06:11:41 22° WNW 06:13:33 80° SSW 06:16:39 10° ESE visible
02 Dec 2.9 05:13:18 31° E 05:13:18 31° E 05:15:10 10° ESE visible
03 Dec 1.6 05:46:59 40° SW 05:47:10 41° SW 05:50:07 10° SE visible
04 Dec 4.5 04:48:33 11° ESE 04:48:33 11° ESE 04:48:45 10° ESE visible
04 Dec 3.6 06:21:15 10° SW 06:21:49 10° SW 06:22:24 10° SSW visible
05 Dec 3.7 05:22:12 14° S 05:22:12 14° S 05:22:51 10° SSE visible
